Content
SEND FEEDBACK

Daily
Averages
Monthly
Summary
France

AVIGNON, FRANCE


Home > Europe > France
Elevation: 187 feet     Latitude: 44 00N     Longitude: 004 45E

WEATHER
 
SELECT A DAY
Number of Records: 167,627;   Date Range: 5/17/04 - 8/10/14
 
SHARE

PRINT THIS DATA

[ ← Previous Day ]
WEATHER ALMANAC - JANUARY 1, 2013
[ Next Day → ]
[ °C ]   °F
Weather ElementAverageHighLow
Temperature47 °F51.8 °F (2:00 pm)37.4 °F (9:30 pm)
Dewpoint42.1 °F46.4 °F (4:30 pm)37.4 °F (9:30 pm)
Humidity83.8 %100 % (6:00 pm)66 % (5:30 am)
Barometer29.99 in30.06 in (12:30 am)29.95 in (1:00 pm)
Wind Speed6.9 mph15 mph (10:00 am)
Weather ElementAverage
Visibility5.1 mi
Wind DirectionESE (125.3 °)

Weather ElementTotal
Precipitation---
Heating Degree Days20.4 (Base 65)
Averaged from 47 records on January 1, 2013
WEATHER CONDITIONS BREAKOUT
WIND DIRECTION BREAKOUT
WEATHER BY HOUR - JANUARY 1, 2013
[ °C ]   °F
Local TimeTemperatureDewpointHumidityBarometerVisibilityWind DirectionWind SpeedGust SpeedPrecipitationEventsConditions
12:30 AM44.6 °F41.0 °F87 %30.06 in6.2 miESE (120°)3.5 mphOvercast
1:00 AM46.4 °F41.0 °F81 %30.06 in6.2 miESE (110°)4.6 mphOvercast
1:30 AM46.4 °F41.0 °F81 %30.04 in6.2 miESE (110°)9.2 mph
2:00 AM46.4 °F41.0 °F81 %30.04 in6.2 miSE (130°)8.1 mph
2:30 AM46.4 °F41.0 °F81 %30.04 in6.2 miESE (110°)8.1 mphMostly Cloudy
3:00 AM48.2 °F41.0 °F76 %30.04 in6.2 miESE (110°)10.4 mphMostly Cloudy
3:30 AM48.2 °F41.0 °F76 %30.01 in6.2 miESE (110°)11.5 mphMostly Cloudy
4:00 AM50.0 °F41.0 °F71 %30.01 in6.2 miESE (110°)11.5 mphMostly Cloudy
4:30 AM50.0 °F41.0 °F71 %30.01 in6.2 miESE (110°)9.2 mphMostly Cloudy
5:00 AM50.0 °F41.0 °F71 %29.98 in6.2 miESE (110°)11.5 mphOvercast
5:30 AM50.0 °F39.2 °F66 %29.98 in6.2 miEast (100°)11.5 mphOvercast
6:00 AM50.0 °F41.0 °F71 %29.98 in6.2 miESE (110°)10.4 mphOvercast
6:30 AM48.2 °F41.0 °F76 %29.98 in6.2 miESE (120°)9.2 mphRainLight Rain
7:00 AM48.2 °F41.0 °F76 %29.98 in6.2 miEast (100°)11.5 mphRainRain
7:30 AM48.2 °F42.8 °F82 %29.98 in6.2 miEast (100°)10.4 mphOvercast
8:00 AM48.2 °F41.0 °F76 %29.98 in6.2 miEast (100°)13.8 mphOvercast
8:30 AM48.2 °F41.0 °F76 %29.98 in6.2 miESE (110°)12.7 mphOvercast
9:00 AM48.2 °F41.0 °F76 %29.98 in6.2 miESE (110°)13.8 mphRainLight Rain
9:30 AM48.2 °F42.8 °F82 %29.98 in6.2 miESE (110°)13.8 mphOvercast
10:00 AM48.2 °F41.0 °F76 %29.98 in6.2 miESE (110°)15.0 mphOvercast
10:30 AM48.2 °F41.0 °F76 %29.98 in6.2 miESE (110°)13.8 mphOvercast
11:00 AM48.2 °F42.8 °F82 %30.01 in6.2 miSouth (180°)6.9 mphRainLight Rain
11:30 AM50.0 °F42.8 °F76 %29.98 in6.2 miESE (120°)9.2 mphOvercast
12:00 PM50.0 °F44.6 °F82 %29.98 in6.2 miESE (110°)9.2 mphOvercast
12:30 PM50.0 °F42.8 °F76 %29.98 in6.2 miESE (120°)8.1 mphOvercast
1:00 PM50.0 °F42.8 °F76 %29.95 in6.2 miSE (140°)6.9 mphOvercast
1:30 PM50.0 °F42.8 °F76 %29.95 in6.2 miSE (140°)4.6 mphOvercast
2:00 PM51.8 °F42.8 °F71 %29.95 in6.2 miESE (120°)5.8 mphOvercast
2:30 PM51.8 °F42.8 °F71 %29.95 in6.2 miVariable1.2 mphOvercast
3:00 PM50.0 °F44.6 °F82 %29.95 in6.2 miNorth (360°)5.8 mphOvercast
3:30 PM48.2 °F44.6 °F87 %29.95 in6.2 miNorth (350°)6.9 mphOvercast
4:00 PM48.2 °F44.6 °F87 %29.98 in6.2 miNorth (350°)5.8 mphRainLight Rain
4:30 PM48.2 °F46.4 °F93 %29.98 in6.2 miNorth (10°)3.5 mphRainLight Rain
5:00 PM48.2 °F46.4 °F93 %29.98 in6.2 miNNE (30°)3.5 mphRainLight Rain
5:30 PM46.4 °F44.6 °F93 %29.98 in6.2 miNorth (10°)3.5 mphPartly Cloudy
6:00 PM46.4 °F46.4 °F100 %29.98 in5.6 miNW (310°)3.5 mphMostly Cloudy
6:30 PM46.4 °F44.6 °F93 %29.98 in6.2 miNorth (350°)3.5 mphOvercast
7:00 PM46.4 °F44.6 °F93 %29.98 in6.2 miNorth (10°)2.3 mphMostly Cloudy
7:30 PM42.8 °F42.8 °F100 %29.98 in0.2 miCalmFogFog
8:00 PM42.8 °F42.8 °F100 %30.01 in0.7 miWNW (290°)3.5 mphLight Drizzle
8:30 PM41.0 °F41.0 °F100 %30.01 in0.3 miCalmFogFog
9:00 PM39.2 °F39.2 °F100 %30.01 in0.2 miCalmFogPatches of Fog
9:30 PM37.4 °F37.4 °F100 %30.01 in0.1 miSW (220°)1.2 mphFogFog
10:00 PM39.2 °F39.2 °F100 %30.01 in0.1 miCalmFogFog
10:30 PM41.0 °F41.0 °F100 %30.01 in0.2 miCalmFogFog
11:00 PM41.0 °F41.0 °F100 %30.04 in0.2 miVariable1.2 mphFogFog
11:30 PM42.8 °F42.8 °F100 %30.04 in1.3 miNorth (360°)4.6 mphLight Drizzle
Hourly data recorded from LFMV, located miles away from Avignon, France







STORIES FROM OUR PARTNERS